Regional Weather Roundup
Issued by NWS

Home | Current Version | Previous Version | Graphics & Text | Print | Product List | Glossary On
Versions: 1 2 3 4 5 6 7 8 9 10 11 12 13 14 15 16 17 18 19 20 21 22 23 24 25 26 27
000
ASUS45 KBOU 040407
RWRCO

WEATHER ROUNDUP FOR COLORADO
NATIONAL WEATHER SERVICE DENVER/BOULDER CO
900 PM MST SAT DEC 03 2016

NOTE: "FAIR" INDICATES FEW OR NO CLOUDS BELOW 12000 FEET WITH NO
SIGNIFICANT WEATHER AND/OR OBSTRUCTIONS TO VISIBILITY.

COZ001>005-013-030-031-040500-
...NORTHWEST COLORADO...

CITY           SKY/WX    TMP DP  RH WIND       PRES   REMARKS
CRAIG          MOCLDY    20  14  77 SW3       30.17R
HAYDEN         MOCLDY    19  12  73 NE3       30.15S
MEEKER         FAIR      10   6  84 CALM      30.17R
MOUNT WERNER   NOT AVBL
STEAMBOAT SPGS FAIR      17  13  84 CALM      30.14S
WALDEN           N/A     10   5  79 SE6       30.08F WCI   1
$$

COZ006>008-011-040500-
...WEST CENTRAL VALLEYS...

CITY           SKY/WX    TMP DP  RH WIND       PRES   REMARKS
GRAND JUNCTION FAIR      25  17  72 E5        30.19R WCI  19
MONTROSE       FAIR      23  14  68 SE9       30.22S WCI  13
EAGLE          CLOUDY    20  11  68 E3        30.18F
RIFLE          FAIR      21  13  71 E9        30.20F WCI  11
DELTA          NOT AVBL
NUCLA          FAIR      23  12  63 E9        30.21S WCI  13
$$

COZ017>023-064>068-040500-
...SOUTHWEST COLORADO...

CITY           SKY/WX    TMP DP  RH WIND       PRES   REMARKS
DURANGO        FAIR      24  19  81 N6        30.07R WCI  17
CORTEZ         FAIR      24  13  62 VRB7      30.13R WCI  16
PAGOSA SPRINGS FAIR      22  21  98 CALM      30.07R
TELLURIDE      FAIR      14   9  80 CALM      30.15R
WOLF CREEK PAS FAIR       9   9 100 NW9G17    30.09R WCI  -5
$$

COZ009-010-012-014-032>034-037-058>063-040500-
...CENTRAL COLORADO...

CITY           SKY/WX    TMP DP  RH WIND       PRES   REMARKS
ASPEN          CLOUDY    18  12  77 CALM      30.14R
BUENA VISTA    FAIR      23   6  48 NW14G22   30.08R WCI  10
COPPER MTN     CLOUDY    10   3  72 MISG      30.02R
BERTHOUD PASS  CLOUDY     1  -9  60 NW33G41   29.93S WCI -25
COTTONWOOD PAS FAIR      23   1  39 W25G36    30.03S WCI   7
GUNNISON       FAIR      15   7  70 SW6       30.15R WCI   6
KREMMLING      CLOUDY    27  19  74 SE5       30.14S WCI  21
LEADVILLE      CLOUDY     7   1  76 NE8       30.07R WCI  -6
MONARCH PASS   CLOUDY     9   5  85 W16G24    30.12R WCI  -9
SALIDA         FAIR      25   9  50 W3        30.17R
SUNLIGHT       FAIR       9   5  85 W5        30.13S WCI   0
WILKERSON PASS FAIR      10   1  67 NW9G24    30.03R WCI  -2
$$

COZ069>075-040500-
...SAN LUIS VALLEY/SANGRE DE CRISTO MOUNTAINS...

CITY           SKY/WX    TMP DP  RH WIND       PRES   REMARKS
ALAMOSA        FAIR       7   4  87 CALM      30.08R
LA VETA PASS   FAIR      16  12  86 E14       30.03R WCI   1
SAGUACHE       FAIR      23  10  58 N8        30.10R WCI  14
$$

COZ035-036-038>040-040500-
...NORTHERN COLORADO FRONT RANGE...

CITY           SKY/WX    TMP DP  RH WIND       PRES   REMARKS
DENVER INTL AP FAIR      27  14  58 W7        30.05R WCI  19
DMNS CITY PARK   N/A     34   5  29 W6G18     30.05S WCI  29
AURORA         PTCLDY    29  13  51 CALM      30.06R
FRONT RANGE AP PTCLDY    28  18  64 SW6       30.05R WCI  22
ERIE MUNI ARPT FAIR      23  11  60 S3        30.06R
BOULDER MUN AP FAIR      36   7  30 W15G33    30.04R
CENTENNIAL     FAIR      22  11  62 W7        30.05R WCI  13
BROOMFIELD     PTCLDY    32   7  34 W13       30.04R WCI  22
FORT COLLINS   FAIR      30   9  40 N5        30.05R WCI  25
LONGMONT       FAIR      24  11  59 CALM      30.06S
$$

COZ041-046-047-076>085-087-088-040500-
...PIKES PEAK/PALMER DIVIDE AND SOUTHERN FOOTHILLS...

CITY           SKY/WX    TMP DP  RH WIND       PRES   REMARKS
COLO. SPRINGS  FAIR      21   8  57 N6        30.04R WCI  13
A. F. ACADEMY  FAIR      21  10  62 N7        30.03R WCI  12
SCHRIEVER AFB  NOT AVBL
ELLICOTT       FAIR     N/A N/A N/A NE9       30.01S
FALCON         FAIR      26   8  46 N7        30.04R WCI  19
FORT CARSON    FAIR      27  11  52 W6        30.02R WCI  20
LIMON          FAIR      19  15  84 W9        30.04R WCI   8
MONUMENT HILL  FAIR      19   9  63 NW6       30.04R WCI  11
TRINIDAD       FAIR      21  12  68 W7        30.04R WCI  12
$$

COZ042>045-048>051-090-091-040500-
...NORTHEAST COLORADO...

CITY           SKY/WX    TMP DP  RH WIND       PRES   REMARKS
GREELEY ARPT   CLOUDY    26  11  52 CALM      30.07R
AKRON          FAIR      23  12  62 W10       30.02R WCI  12
BURLINGTON     FAIR      25  16  68 NW8       30.04R WCI  16
WRAY           NOT AVBL
STERLING       MOCLDY    30  14  51 NW13      30.02S WCI  20
HOLYOKE        FAIR      34  19  55 NW8       30.01S WCI  27
FORT MORGAN    FAIR      32  10  40 NW14G20   30.05R WCI  22
$$

COZ086-089-092>099-040500-
...SOUTHEAST COLORADO...

CITY           SKY/WX    TMP DP  RH WIND       PRES   REMARKS
PUEBLO         FAIR      26  17  68 SW3       30.04R
LA JUNTA       FAIR      28  21  75 NW3       30.05R
LAMAR          FAIR      21  18  88 W3        30.04R
SPRINGFIELD      N/A     20  19  96 CALM      30.01R
$$




USA.gov is the U.S. government's official web portal to all federal, state and local government web resources and services.